This demonstration page uses our WeatherBlox Daily Observations layout. Learn more.

Left ArrowRight Arrow

Hourly Observations for September 14, 2021

Temp ( °F °C ) Dew Point ( °F °C ) Humidity (%) Winds ( mph kmh ) Pressure ( in mb ) Visibility ( mi km ) Precip ( " mm )
12:54 am 00:54 Clear 72 22.2 66 18.9 82 82 NNW 9 15 29.80 1009 10 16 N/A
1:54 am 01:54 Partly Cloudy 72 22.2 65 18.3 79 79 NW 6 9 29.82 1010 10 16 N/A
2:54 am 02:54 Mostly Clear 67 19.4 63 17.2 87 87 N N/A 29.84 1011 10 16 N/A
3:54 am 03:54 Clear 69 20.6 63 17.2 81 81 NW 7 11 29.86 1011 10 16 N/A
4:54 am 04:54 Clear 67 19.4 63 17.2 87 87 NW 9 15 29.87 1012 10 16 N/A
5:54 am 05:54 Mostly Clear 67 19.4 63 17.2 87 87 NNW 12 19 29.88 1012 9 14 N/A
6:10 am 06:10 Mostly Cloudy 67 19.4 63 17.2 87 87 NNW 10 17 29.89 1012 8 13 N/A
6:21 am 06:21 Partly Cloudy 67 19.4 63 17.2 87 87 NNW 12 19 29.89 1012 8 13 N/A
6:54 am 06:54 Clear 65 18.3 62 16.7 90 90 N 8 13 29.90 1013 8 13 N/A
7:54 am 07:54 Sunny 66 18.9 62 16.7 87 87 N 10 17 29.93 1013 8 13 N/A
8:13 am 08:13 Mostly Cloudy 66 18.9 62 16.7 87 87 N 9 15 29.93 1014 9 14 N/A
8:54 am 08:54 Cloudy 66 18.9 62 16.7 87 87 N N/A 29.95 1014 10 16 N/A
9:25 am 09:25 Cloudy 69 20.6 63 17.2 81 81 N 7 11 29.94 1014 10 16 N/A
9:45 am 09:45 Partly Cloudy 68 20 62 16.7 81 81 N 7 11 29.96 1014 10 16 N/A
9:54 am 09:54 Mostly Sunny 69 20.6 62 16.7 78 78 N 7 11 29.97 1015 10 16 N/A
10:20 am 10:20 Mostly Cloudy 68 20 61 16.1 78 78 N 8 13 29.99 1015 10 16 N/A
10:54 am 10:54 Cloudy 69 20.6 61 16.1 76 76 N 6 9 29.98 1015 10 16 0.00 0.00
11:54 am 11:54 Partly Cloudy 73 22.8 62 16.7 69 69 ENE 7 11 29.99 1016 10 16 N/A
12:54 pm 12:54 Sunny 78 25.6 62 16.7 58 58 NNE 8 13 29.96 1015 10 16 N/A
1:54 pm 13:54 Sunny 77 25 61 16.1 58 58 N 10 17 29.95 1014 10 16 N/A
2:54 pm 14:54 Mostly Sunny 79 26.1 60 15.6 52 52 NNE 12 19 29.95 1014 10 16 N/A
3:54 pm 15:54 Partly Cloudy 77 25 59 15 54 54 NNE 14 22 29.96 1015 10 16 N/A
4:54 pm 16:54 Sunny 76 24.4 57 13.9 52 52 NNE 12 19 29.94 1014 10 16 N/A
5:54 pm 17:54 Sunny 76 24.4 59 15 56 56 NE 13 20 29.96 1015 10 16 N/A
6:54 pm 18:54 Sunny 74 23.3 58 14.4 57 57 NE 6 9 29.97 1015 10 16 N/A
7:54 pm 19:54 Clear 68 20 58 14.4 70 70 NE 5 7 29.97 1015 10 16 N/A
8:54 pm 20:54 Clear 63 17.2 56 13.3 78 78 NNE 5 7 29.98 1015 10 16 N/A
9:54 pm 21:54 Clear 60 15.6 55 12.8 84 84 N 5 7 30.00 1016 10 16 N/A
10:54 pm 22:54 Clear 59 15 55 12.8 87 87 N 6 9 30.01 1016 10 16 N/A
11:54 pm 23:54 Clear 57 13.9 53 11.7 87 87 NNW 5 7 30.01 1016 10 16 N/A

Powered by AerisWeather